LB9CG Weather Reports


time (UTC)temp
C
wind
direction
speed
KPH
gust
KPH
rain 1hr
cm
rain 24hr
cm
rain mn
cm
humidity
%
barometer
mb
20260506220036 2 0.0 1.6 0.00 0.00 0.00 92 1010.6
20260506215017 1 225 1.6 4.8 0.00 0.00 0.00 92 1010.5
20260506214037 1 0.0 1.6 0.00 0.00 0.00 91 1010.4
20260506213016 1 0.0 1.6 0.00 0.00 0.00 91 1010.4
20260506212016 1 0.0 1.6 0.00 0.00 0.00 90 1010.4
20260506211016 1 0.0 1.6 0.00 0.00 0.00 90 1010.3
20260506210016 1 0.0 1.6 0.00 0.00 0.00 89 1010.2
20260506205016 1 0.0 1.6 0.00 0.00 0.00 89 1010.2
20260506204016 1 0.0 1.6 0.00 0.00 0.00 87 1010.2
20260506203036 2 0.0 3.2 0.00 0.00 0.00 87 1010.2
20260506202017 2 0.0 1.6 0.00 0.00 0.00 85 1010.2
20260506201016 2 180 1.6 4.8 0.00 0.00 0.00 85 1010.2
20260506200016 2 158 1.6 6.4 0.00 0.00 0.00 86 1010.1
20260506195016 2 135 4.8 16.1 0.00 0.00 0.00 86 1010.2
20260506194016 2 0.0 3.2 0.00 0.00 0.00 86 1010.1
20260506193056 2 225 3.2 8.0 0.00 0.00 0.00 85 1010.0
20260506192016 3 225 3.2 9.7 0.00 0.00 0.00 83 1010.1
20260506191036 3 248 4.8 14.5 0.00 0.00 0.00 81 1010.0
20260506190016 4 248 4.8 14.5 0.00 0.00 0.00 79 1010.1
20260506185036 5 203 4.8 9.7 0.00 0.00 0.00 79 1009.8
20260506184016 5 0.0 1.6 0.00 0.00 0.00 78 1009.7
20260506183016 5 248 1.6 4.8 0.00 0.00 0.00 77 1009.6
20260506182016 5 0.0 4.8 0.00 0.00 0.00 75 1009.7
20260506181036 6 0.0 3.2 0.00 0.00 0.00 73 1009.7
20260506180016 6 158 1.6 4.8 0.00 0.00 0.00 75 1009.6
20260506175016 5 225 3.2 9.7 0.00 0.00 0.00 76 1009.7
20260506174016 5 225 1.6 6.4 0.00 0.00 0.00 76 1009.7
20260506173016 6 225 1.6 9.7 0.00 0.00 0.00 74 1009.7
20260506172016 6 225 1.6 9.7 0.00 0.00 0.00 75 1009.6
20260506171017 6 225 4.8 12.9 0.00 0.00 0.00 74 1009.6
20260506170016 6 225 4.8 17.7 0.00 0.00 0.00 73 1009.4
20260506165016 6 225 3.2 8.0 0.00 0.00 0.00 76 1009.4
20260506164016 6 135 4.8 11.3 0.00 0.00 0.00 77 1009.5
20260506163016 6 158 6.4 11.3 0.00 0.00 0.00 75 1009.4
20260506162016 6 158 3.2 8.0 0.00 0.00 0.00 74 1009.5
20260506161036 7 225 4.8 9.7 0.00 0.00 0.00 73 1009.5
20260506160016 7 203 4.8 11.3 0.00 0.00 0.00 74 1009.5
20260506155016 6 135 1.6 4.8 0.00 0.00 0.00 77 1009.5
20260506154016 6 225 4.8 12.9 0.00 0.00 0.00 74 1009.4
20260506153035 7 293 4.8 12.9 0.00 0.00 0.00 73 1009.4
20260506152016 6 225 3.2 12.9 0.00 0.00 0.00 76 1009.3
20260506151016 6 113 3.2 8.0 0.00 0.00 0.00 80 1009.3
20260506150016 6 225 1.6 9.7 0.00 0.00 0.00 81 1009.3
20260506145036 5 158 3.2 8.0 0.00 0.00 0.00 83 1009.4
20260506144016 5 225 3.2 11.3 0.00 0.00 0.00 86 1009.4
20260506143015 5 270 3.2 12.9 0.00 0.00 0.00 86 1009.4
20260506142016 5 293 4.8 12.9 0.00 0.00 0.00 86 1009.4
20260506141015 5 0.0 1.6 0.00 0.00 0.00 90 1009.4
20260506140015 4 90 8.0 12.9 0.00 0.00 0.00 88 1009.4
20260506135016 5 90 4.8 9.7 0.00 0.00 0.00 89 1009.2
20260506134016 5 293 1.6 4.8 0.00 0.00 0.00 89 1009.3
20260506133015 5 23 3.2 8.0 0.00 0.00 0.00 92 1009.4
20260506132016 3 0 1.6 4.8 0.00 0.00 0.00 90 1009.5
20260506131036 3 338 1.6 4.8 0.00 0.00 0.00 91 1009.5
20260506130015 3 23 1.6 3.2 0.00 0.00 0.00 90 1009.5
20260506125036 3 0 1.6 4.8 0.00 0.00 0.00 90 1009.5
20260506124015 3 0.0 1.6 0.00 0.00 0.00 91 1009.3
20260506123015 2 0.0 3.2 0.00 0.00 0.00 91 1009.2
20260506122035 2 23 1.6 4.8 0.00 0.00 0.00 89 1009.3
20260506121015 3 293 4.8 11.3 0.00 0.00 0.00 86 1009.3
20260506120015 5 270 6.4 20.9 0.00 0.00 0.00 80 1009.1
20260506115015 6 135 4.8 14.5 0.00 0.00 0.00 75 1008.6
20260506114015 6 248 4.8 19.3 0.00 0.00 0.00 74 1008.6
20260506113015 6 225 4.8 14.5 0.00 0.00 0.00 75 1008.6
20260506112017 5 203 3.2 9.7 0.00 0.00 0.00 78 1008.6
20260506111038 6 270 8.0 27.4 0.00 0.00 0.00 75 1008.5
20260506110017 6 225 3.2 8.0 0.00 0.00 0.00 78 1008.5
20260506105037 6 270 6.4 17.7 0.00 0.00 0.00 78 1008.3
20260506104018 6 203 4.8 17.7 0.00 0.00 0.00 79 1008.2
20260506102017 5 293 3.2 9.7 0.00 0.00 0.00 88 1008.0
20260506101017 5 248 1.6 6.4 0.00 0.00 0.00 90 1008.0
20260506100017 4 293 1.6 3.2 0.00 0.00 0.00 91 1007.9
20260506095017 3 293 1.6 3.2 0.00 0.00 0.00 90 1007.9
20260506094017 3 293 1.6 4.8 0.00 0.00 0.00 90 1007.9
20260506093017 3 0.0 3.2 0.00 0.00 0.00 90 1007.9
20260506092017 3 23 3.2 6.4 0.00 0.00 0.00 88 1007.8
20260506091017 4 45 3.2 9.7 0.00 0.00 0.00 85 1007.6
20260506090017 5 293 4.8 12.9 0.00 0.00 0.00 81 1007.6
20260506085017 6 225 1.6 9.7 0.00 0.00 0.00 87 1007.5
20260506084017 4 23 1.6 4.8 0.00 0.00 0.00 89 1007.5
20260506083017 3 158 3.2 12.9 0.00 0.00 0.00 90 1007.5
20260506082017 3 0 1.6 4.8 0.00 0.00 0.00 91 1007.5
20260506081017 3 293 1.6 4.8 0.00 0.00 0.00 90 1007.5
20260506073017 4 0.0 1.6 0.00 0.00 0.00 89 1007.0
20260506072017 3 0.0 1.6 0.00 0.00 0.00 90 1007.0
20260506071017 3 293 1.6 4.8 0.00 0.00 0.00 89 1007.0
20260506062017 3 203 3.2 8.0 0.00 0.00 0.00 87 1006.6
20260506061016 4 225 1.6 8.0 0.00 0.00 0.00 88 1006.5
20260506051037 2 158 1.6 6.4 0.00 0.00 0.00 95 1006.2
20260506045016 2 0.0 3.2 0.00 0.00 0.00 95 1006.2
20260506044016 2 0.0 1.6 0.00 0.00 0.00 95 1006.2
20260506043037 2 0.0 1.6 0.00 0.00 0.00 95 1006.2
20260506042016 2 0.0 1.6 0.00 0.00 0.00 96 1006.2
20260506041016 1 158 1.6 4.8 0.00 0.00 0.00 96 1006.2
20260506040016 1 45 3.2 11.3 0.00 0.00 0.00 95 1006.1
20260506035016 2 0.0 3.2 0.00 0.00 0.00 96 1006.1
20260506034016 1 270 3.2 14.5 0.00 0.00 0.00 96 1006.1
20260506033016 1 248 1.6 4.8 0.00 0.00 0.00 95 1005.6
20260506032016 1 0.0 3.2 0.00 0.00 0.00 95 1005.8
20260506031016 1 180 1.6 4.8 0.00 0.00 0.00 95 1005.8
20260506030016 1 0.0 3.2 0.00 0.00 0.00 95 1006.0
20260506025017 1 293 3.2 12.9 0.00 0.00 0.00 94 1006.2
20260506024016 1 293 1.6 16.1 0.00 0.00 0.00 94 1006.2
20260506023016 1 293 3.2 9.7 0.00 0.00 0.00 93 1006.1
20260506022016 1 45 1.6 3.2 0.00 0.00 0.00 94 1005.8
20260506021016 1 90 1.6 9.7 0.00 0.00 0.00 93 1005.5
20260506020016 2 293 6.4 17.7 0.00 0.00 0.00 93 1005.9
20260506015016 2 248 3.2 11.3 0.00 0.00 0.00 94 1005.6
20260506014036 1 203 3.2 9.7 0.00 0.00 0.00 95 1005.7
20260506013016 1 225 1.6 6.4 0.00 0.00 0.00 94 1005.7
20260506012016 1 225 3.2 9.7 0.00 0.00 0.00 94 1005.5
20260506011016 1 225 4.8 11.3 0.00 0.00 0.00 94 1005.4
20260506010016 2 248 3.2 12.9 0.00 0.00 0.00 94 1005.3
20260506005016 2 248 1.6 9.7 0.00 0.00 0.00 94 1005.4
20260506004016 2 225 1.6 9.7 0.00 0.00 0.00 94 1005.2
20260506003036 2 225 3.2 14.5 0.00 0.00 0.00 94 1005.2
20260506002016 2 293 4.8 14.5 0.00 0.00 0.00 93 1005.2
20260506001016 2 293 8.0 19.3 0.00 0.00 0.00 93 1005.2
20260506000016 2 293 6.4 17.7 0.00 0.00 0.00 93 1005.1
20260505235016 2 293 8.0 14.5 0.00 0.00 0.00 92 1005.0
20260505234016 2 293 4.8 19.3 0.00 0.00 0.00 93 1005.0
20260505233016 2 225 3.2 12.9 0.00 0.00 0.00 93 1005.0
20260505232016 2 293 4.8 12.9 0.00 0.00 0.00 94 1005.0
20260505231036 2 248 3.2 12.9 0.00 0.00 0.00 94 1005.1
20260505230016 2 225 4.8 12.9 0.00 0.00 0.00 95 1005.1
20260505225016 2 270 4.8 19.3 0.00 0.00 0.00 95 1005.2
20260505224016 2 270 3.2 12.9 0.00 0.00 0.00 96 1005.1
20260505223016 1 225 3.2 8.0 0.00 0.00 0.00 95 1005.0
20260505222035 1 180 4.8 12.9 0.00 0.00 0.00 94 1005.0
20260505221036 1 225 4.8 20.9 0.00 0.00 0.00 94 1004.9